Theta_e
340 349 355 354 352 350 347 344 344 342 342 339 338 337 336 334 333 332 332 332 332 331 331 331 331 331 332 333 334 336 337 338 342 346 348 352 354 355 356 357 360 356 359
340 350 355 354 353 351 349 347 346 346 345 341 340 338 337 335 334 334 333 334 334 334 334 334 334 335 334 334 335 336 337 338 339 342 346 348 354 355 356 357 357 356 358
340 350 351 354 353 352 350 349 349 348 346 343 341 340 339 337 336 335 336 336 336 336 336 337 338 338 339 337 336 336 337 338 340 340 342 345 352 355 356 357 357 356 357
340 351 347 354 354 353 352 350 350 348 346 344 343 342 341 340 339 338 339 340 340 340 339 340 340 341 341 341 340 338 337 338 339 341 335 332 344 357 355 357 357 356 356
340 350 349 354 353 353 352 351 350 350 348 345 344 343 342 342 342 341 342 342 343 343 343 342 342 342 343 343 343 342 340 339 338 338 332 330 336 350 356 355 357 355 356
338 345 353 354 354 354 353 352 351 350 348 347 345 344 343 343 344 344 343 344 345 345 346 344 344 343 344 344 344 344 343 341 339 335 332 333 334 349 350 354 355 356 356
338 340 352 355 354 354 354 352 352 351 350 349 346 345 344 346 346 346 345 346 346 346 346 345 345 345 344 344 343 344 343 343 341 338 333 336 336 346 349 349 353 353 355
338 341 347 356 355 354 354 353 352 351 350 350 349 348 348 349 348 347 347 346 346 344 344 343 343 344 343 342 342 341 341 341 341 341 338 334 346 346 345 348 351 351 352
340 340 343 357 356 354 354 352 352 352 352 351 350 349 350 349 349 348 346 344 342 339 339 339 340 341 342 341 341 341 341 342 339 339 339 337 348 345 342 344 350 351 351
340 340 342 350 356 354 350 354 353 353 352 352 351 350 350 348 348 346 343 340 338 337 336 336 338 339 340 342 343 341 341 341 339 337 338 339 347 344 341 342 349 350 351
335 340 342 341 350 353 348 349 353 352 351 351 349 349 349 344 339 343 342 338 336 336 335 335 335 336 338 339 340 341 340 337 336 336 335 347 345 344 342 340 346 349 349
331 336 340 344 347 350 345 350 352 347 347 347 346 345 346 343 342 340 342 335 336 336 336 335 336 337 338 335 335 340 337 335 335 335 335 346 343 341 339 341 343 347 348
332 334 339 352 355 351 346 344 349 346 345 347 347 350 347 340 341 340 340 339 339 337 337 336 336 336 335 333 334 335 335 335 333 335 338 346 343 342 340 341 343 345 348
332 334 339 345 355 357 349 343 346 346 346 344 345 349 345 340 342 341 338 339 340 337 340 336 334 341 336 336 336 334 335 336 335 336 340 342 340 339 339 341 343 343 347
332 334 336 347 355 358 359 346 347 348 343 344 342 343 342 340 342 339 340 338 338 336 335 339 337 335 338 336 335 334 334 337 337 338 339 342 340 339 338 340 342 343 346
335 336 338 348 356 354 355 359 353 352 344 341 339 339 344 342 343 339 341 337 338 337 336 335 335 336 336 334 335 335 337 337 336 339 337 341 340 338 338 340 341 342 345
335 341 344 352 356 357 357 355 352 345 342 339 338 342 342 344 343 342 338 339 343 347 340 339 337 337 332 333 335 335 334 336 335 337 338 336 336 340 339 340 341 341 344
338 342 343 340 348 356 356 353 349 342 340 337 337 339 343 344 343 342 339 339 345 342 342 339 334 332 331 330 333 332 333 335 336 337 337 337 334 335 339 342 341 341 345
342 345 342 348 345 353 356 351 350 351 339 336 337 338 341 342 341 342 339 341 343 340 337 336 335 333 331 330 332 335 335 335 335 334 334 335 335 335 338 342 343 343 346
337 342 347 346 353 356 351 350 342 338 337 336 337 337 341 340 339 343 339 342 343 337 336 334 335 331 330 335 329 331 334 333 333 334 335 332 334 336 337 339 340 340 345
336 339 344 343 352 350 345 339 336 333 336 335 336 339 339 340 342 342 341 340 340 336 334 335 332 332 332 335 331 330 332 335 335 332 333 332 333 335 341 338 340 340 342
336 339 340 341 347 348 343 342 337 337 334 334 336 339 340 340 341 339 339 340 339 338 336 332 335 332 334 336 327 328 322 327 333 332 333 333 335 334 338 339 339 345 346
335 338 339 341 345 346 347 342 339 337 337 334 333 334 338 339 340 340 338 338 338 339 336 336 334 331 329 333 332 329 322 320 325 333 333 332 339 341 340 343 343 343 348
335 337 339 342 342 342 346 343 344 334 329 332 336 334 337 338 337 337 337 336 336 339 335 334 336 332 333 329 333 331 333 331 322 321 334 337 341 340 342 342 346 346 347
335 336 339 341 340 342 342 344 335 336 331 333 333 336 339 339 337 336 336 336 337 338 337 335 333 333 335 333 332 335 331 332 331 320 320 329 334 337 339 340 344 345 345
334 336 338 338 338 340 338 339 339 337 334 332 333 335 337 340 338 337 334 336 337 338 335 333 335 334 334 336 337 333 335 329 325 327 328 327 326 328 332 333 338 341 338
Wind_Speed
12 20 22 21 20 19 18 17 15 15 14 13 12 10 9 8 7 6 6 5 4 3 2 1 2 3 4 3 4 4 5 5 5 6 6 7 6 6 7 8 10 10 15
16 22 22 21 21 20 19 17 16 14 13 13 12 11 9 8 7 6 5 4 4 3 3 3 3 5 5 5 6 5 6 6 6 7 9 9 11 9 9 9 11 6 13
16 19 22 21 20 19 18 17 17 15 14 13 12 11 10 8 7 5 5 5 5 5 4 5 5 5 6 6 6 7 6 7 7 8 10 10 9 10 11 11 11 8 12
16 18 20 21 19 18 17 17 17 16 15 13 12 11 10 8 7 7 7 7 7 7 6 7 7 7 7 8 7 7 8 8 8 9 10 12 12 13 12 12 11 8 12
14 17 18 23 20 19 18 17 17 15 14 14 13 11 10 9 9 8 9 9 9 10 10 10 10 11 10 10 9 9 9 9 9 11 12 11 11 8 12 12 11 10 12
13 15 16 23 20 20 20 18 17 16 15 14 13 11 10 10 10 9 10 10 11 13 13 12 12 12 12 11 10 11 10 10 10 12 11 11 8 5 1 8 11 10 11
11 14 18 23 21 20 19 18 17 17 15 13 13 11 11 10 11 11 12 11 12 13 15 14 14 13 12 11 10 9 9 11 12 12 11 10 9 8 4 2 8 9 10
9 12 15 22 22 19 18 18 17 17 15 14 12 10 10 11 12 14 14 11 11 11 11 11 12 12 11 11 10 8 8 9 13 12 11 10 7 9 5 2 7 9 9
10 13 12 16 17 17 16 17 17 16 15 14 12 11 11 11 12 13 10 10 10 10 11 12 13 13 11 10 11 11 10 11 11 9 13 9 13 11 6 2 8 9 9
12 12 13 13 15 16 16 15 15 15 14 13 12 11 11 11 11 11 10 13 13 10 9 10 11 12 13 12 11 12 12 11 12 12 11 7 14 10 5 3 8 8 9
9 11 13 15 15 16 16 16 15 16 15 12 11 12 9 9 12 14 16 8 8 8 10 10 11 11 12 14 15 15 15 9 13 10 9 9 13 12 8 5 8 7 10
15 13 14 15 15 16 13 14 15 13 12 11 11 11 10 10 10 6 5 5 9 11 12 13 13 13 12 10 10 18 9 12 11 11 9 14 12 8 5 6 8 9 9
17 8 14 14 12 15 14 12 9 9 9 9 12 10 8 7 7 7 7 7 9 15 9 13 12 10 12 9 5 8 5 9 9 8 7 15 13 9 6 7 10 9 8
16 14 13 16 13 12 10 11 11 10 10 8 9 10 7 6 8 8 6 6 4 6 4 6 6 3 5 7 11 9 7 11 4 8 9 14 9 7 6 9 11 10 8
16 13 12 16 15 12 12 11 10 10 9 9 8 9 8 9 7 6 7 5 7 5 5 3 4 4 3 7 9 9 7 10 11 4 4 14 12 10 9 11 12 11 10
14 13 11 15 16 16 14 12 10 9 10 9 8 8 11 8 6 7 6 6 6 7 7 6 5 6 5 6 5 6 3 10 6 11 4 7 10 11 12 12 13 12 11
13 11 11 13 17 17 16 14 10 10 10 10 8 8 9 9 8 8 8 7 6 5 6 6 8 6 9 9 6 5 6 8 7 10 6 4 11 16 16 16 14 13 12
12 10 12 13 18 16 14 12 10 10 10 8 8 7 10 10 9 8 8 7 6 7 5 4 7 8 7 7 4 7 7 7 6 6 10 9 8 8 16 18 17 15 14
11 11 13 12 16 17 14 12 11 9 9 8 7 7 9 10 10 7 9 7 8 8 6 5 7 5 9 7 3 3 7 7 6 8 12 9 10 7 5 18 17 16 14
9 8 10 11 12 15 12 10 10 9 8 7 7 7 8 8 8 6 9 7 7 7 7 4 8 6 8 5 5 5 6 8 8 7 6 8 11 11 9 9 11 11 15
7 6 9 12 13 12 12 12 11 10 8 7 7 8 7 7 5 7 7 8 8 8 9 9 7 8 7 6 4 5 5 9 7 9 8 10 9 10 7 8 7 8 11
7 9 12 13 14 13 10 9 8 7 8 8 7 6 6 8 8 6 5 7 9 7 9 9 9 7 7 6 5 4 4 5 8 9 7 6 6 5 6 10 9 10 8
9 11 13 14 15 13 11 7 5 6 2 4 6 7 9 7 3 7 9 7 8 7 6 8 7 10 7 7 11 5 4 5 8 7 8 7 7 6 9 8 9 7 7
10 11 14 15 16 13 11 9 9 7 7 4 2 2 2 4 7 4 6 7 6 5 7 7 8 9 8 7 5 9 9 7 5 7 6 6 5 7 8 7 6 8 11
12 13 15 16 15 13 11 9 8 6 6 3 3 1 4 3 5 6 6 4 6 6 6 7 5 7 6 7 7 5 8 8 8 6 9 5 2 1 1 3 5 6 9
14 15 16 17 14 13 10 9 7 6 1 2 4 0 2 3 3 6 6 6 3 4 4 4 5 7 5 6 5 5 5 4 6 3 5 7 6 2 1 3 2 4 5
Wind_Direction
141 149 163 164 164 165 165 163 162 163 166 165 164 162 158 157 154 154 153 151 149 148 158 294 289 279 281 278 284 294 297 299 308 309 306 301 278 251 206 192 186 197 143
145 153 166 168 169 167 166 165 166 169 170 172 172 169 170 170 173 177 175 184 182 187 204 221 263 280 274 272 275 270 287 292 289 293 295 282 255 242 221 213 214 167 155
148 156 170 174 173 170 169 168 169 173 175 178 180 179 182 184 191 203 211 217 225 230 242 248 246 255 272 270 268 273 272 280 283 288 287 270 252 202 232 222 226 218 166
149 159 176 177 175 173 172 173 172 176 179 184 188 190 191 197 206 219 238 243 247 256 260 264 264 254 250 263 265 264 268 265 279 286 271 253 243 176 214 229 229 213 175
158 165 179 171 177 177 177 179 176 180 182 189 196 200 205 212 222 232 242 250 255 260 266 268 266 266 250 242 251 256 258 264 267 273 264 260 274 189 198 218 221 213 189
172 173 160 168 181 181 181 182 179 182 186 195 201 208 219 232 238 240 250 254 261 261 261 263 264 262 263 263 257 253 262 263 267 260 250 257 257 11 345 224 235 218 191
184 180 154 168 182 185 184 183 183 182 188 197 209 216 229 242 250 253 257 257 263 266 267 271 273 267 273 271 270 253 253 265 265 268 255 255 258 156 116 260 247 237 197
213 183 158 170 179 187 190 185 188 184 187 197 210 219 234 246 257 261 258 262 266 273 276 280 282 283 273 262 266 270 261 258 260 245 265 270 152 130 98 328 266 240 222
224 187 194 171 184 186 192 192 189 190 190 193 202 217 234 252 263 273 263 266 265 270 276 276 273 273 272 260 259 262 255 254 261 272 264 224 160 149 136 247 266 239 226
220 213 199 185 181 196 195 199 193 193 194 197 200 213 234 256 260 246 245 238 248 260 268 273 275 277 271 265 252 250 250 250 247 254 261 285 122 124 144 234 266 246 221
249 211 205 201 193 193 200 190 197 198 198 202 211 221 228 249 263 222 225 171 178 236 258 264 265 265 266 261 256 238 237 242 245 227 245 155 139 141 154 223 267 268 226
246 219 206 207 199 191 204 193 198 201 206 206 218 227 214 233 255 300 338 198 216 231 241 246 245 247 248 255 237 224 228 232 240 247 234 136 136 143 161 229 250 269 233
282 257 203 186 203 199 201 189 186 202 201 206 218 219 230 259 252 239 238 221 214 209 233 208 222 228 233 246 248 243 237 249 230 246 256 143 144 154 170 235 245 254 237
246 239 211 192 191 198 207 195 192 193 199 200 199 208 229 238 228 241 266 279 238 238 294 256 272 346 305 292 288 279 232 243 252 221 161 133 141 162 179 233 243 245 245
270 269 241 184 181 195 215 199 201 200 191 200 199 197 222 237 236 256 267 273 290 278 251 255 272 270 257 247 261 258 239 262 268 269 125 152 161 183 197 224 235 239 242
267 266 256 183 175 189 201 228 187 189 184 195 205 210 198 239 233 257 245 228 255 268 257 269 259 268 235 263 238 270 210 240 262 275 175 164 168 190 202 221 228 229 240
261 249 245 195 179 188 197 212 190 187 212 186 205 205 210 215 230 252 268 231 238 268 265 243 261 255 260 248 211 259 204 230 231 238 261 207 195 195 200 211 221 225 231
260 248 221 213 187 185 195 199 196 196 200 198 197 204 201 223 236 254 247 258 263 252 229 230 247 249 250 272 192 236 234 224 206 189 235 242 244 207 201 206 202 212 223
244 236 233 214 197 184 196 197 199 190 196 199 197 209 204 220 233 227 261 253 256 250 238 242 250 238 248 253 267 207 242 256 185 203 218 213 244 262 198 189 196 200 212
264 248 214 192 191 178 182 191 198 179 203 198 202 218 220 231 241 230 252 249 246 229 241 254 251 237 238 233 246 242 232 238 207 224 236 221 216 217 235 167 187 201 207
258 217 186 184 187 171 181 186 191 189 201 201 213 216 235 246 256 235 247 243 239 234 232 228 248 246 252 278 248 237 235 248 240 220 239 210 220 196 212 224 225 199 188
196 186 180 183 169 178 174 194 186 197 190 208 206 201 223 253 260 263 256 248 240 237 239 233 229 232 248 236 219 222 211 218 236 239 225 207 206 228 205 232 227 246 162
182 180 172 170 164 180 174 177 167 168 198 191 214 216 212 226 246 243 244 240 251 243 245 237 231 230 236 223 212 216 195 212 171 205 232 238 181 205 229 213 232 242 193
169 165 159 156 165 174 160 154 170 184 204 200 224 331 352 224 260 226 249 247 240 227 229 232 224 228 228 230 211 227 248 261 192 174 185 217 203 207 209 237 216 215 187
158 157 153 155 167 147 181 166 171 225 173 229 226 175 235 267 274 257 231 234 214 216 225 235 237 220 226 221 217 213 227 248 242 214 161 169 174 221 106 275 207 192 174
155 151 149 156 151 159 161 154 213 144 297 273 203 338 277 240 248 250 240 213 182 214 222 219 211 210 206 220 216 227 229 242 250 131 138 147 137 78 122 65 88 128 111